User: anonymous   Login
Location: Sunny Point
(33.0946°N, 85.0574°W)
Time: 05:11:44
(UTC+00:00)
Language:

QB50P2 - Orbit

View from above orbital plane
View from above orbital plane
View from above satellite
View from above satellite

Ground track
Ground track

The orbit data is extracted from the following two-line orbital elements,

1 40032U 14033Y   24197.82874676  .00009416  00000-0  78232-3 0  9996
2 40032  98.0087 151.0433 0012347  66.8068 293.4453 14.98910111547484
Epoch (UTC): 15 July 2024 19:53:23
Eccentricity: 0.0012347
inclination: 98.0087°
perigee height: 561 km
apogee height: 579 km
right ascension of ascending node: 151.0433°
argument of perigee: 66.8068°
revolutions per day: 14.98910111
mean anomaly at epoch: 293.4453°
orbit number at epoch: 54748

The dashed part of the orbit path shows where the satellite is in the earth's shadow,  

DLR